FW2488 Gambrills MD US current weather conditions

sailwx.info

Wind from 106 at 4 knots gusting 11

Air temperature 7.8° C
Dewpoint 6.9° C

Last reported at 2020-Jan-25 13:03 UTC.
Time now 2020-Jan-25 13:24 UTC

Location: N 39°03' W 076°42'.
View on Google Maps.

See reports from other nearby stations

  
Tides and Currents Weather Stations Pressure Air Temp Water Temp Dewpoint Dewpoint Depression Visibility Wind Speed Wind Dir Waves Ship Positions
date/time (UTC)wind fromknots sea level pressurealtimeterstation pressurevisibilityair tempwater tempwave heightnotes
2020-Jan-25 13:08 111 4 gusting 9 7.8
2020-Jan-25 13:03 106 4 gusting 11 7.8
2020-Jan-25 12:58 047 4 gusting 11 7.8
2020-Jan-25 12:53 025 4 gusting 9 7.8
2020-Jan-25 12:48 014 4 gusting 9 7.8
2020-Jan-25 12:43 045 4 gusting 10 7.8
2020-Jan-25 12:38 016 4 gusting 10 7.8
2020-Jan-25 12:33 042 3 gusting 10 7.8
2020-Jan-25 12:28 146 3 gusting 10 7.8
2020-Jan-25 12:23 045 3 gusting 8 7.8
2020-Jan-25 12:18 070 3 gusting 10 7.8
2020-Jan-25 12:13 048 2 gusting 10 7.8
2020-Jan-25 12:08 039 2 gusting 6 7.8
2020-Jan-25 12:03 031 2 gusting 5 7.8
2020-Jan-25 11:58 356 3 gusting 9 7.8
2020-Jan-25 11:53 020 4 gusting 9 7.8
2020-Jan-25 11:48 015 3 gusting 9 7.8
2020-Jan-25 11:43 043 3 gusting 8 7.8
2020-Jan-25 11:38 064 3 gusting 10 7.8
2020-Jan-25 11:33 046 3 gusting 10 7.8
2020-Jan-25 11:28 051 2 gusting 9 7.8
2020-Jan-25 11:23 010 2 gusting 7 7.8
2020-Jan-25 11:18 022 2 gusting 6 7.8
2020-Jan-25 11:13 023 2 gusting 8 7.8
2020-Jan-25 11:08 036 1 gusting 8 7.8
2020-Jan-25 11:03 246 1 gusting 6 7.8
2020-Jan-25 10:58 262 2 gusting 6 7.8
2020-Jan-25 10:53 345 3 gusting 6 7.8
2020-Jan-25 10:48 256 2 gusting 8 7.8
2020-Jan-25 10:43 010 2 gusting 8 8.3
2020-Jan-25 10:38 017 2 gusting 6 8.3
2020-Jan-25 10:33 103 2 gusting 8 7.8
2020-Jan-25 10:28 093 2 gusting 8 7.8
2020-Jan-25 10:23 084 1 gusting 6 7.8
2020-Jan-25 10:18 054 2 gusting 9 7.8
2020-Jan-25 10:13 149 2 gusting 9 7.8
2020-Jan-25 10:08 091 1 gusting 5 7.8
2020-Jan-25 10:03 113 2 gusting 6 7.8
2020-Jan-25 09:58 005 3 gusting 6 7.8
2020-Jan-25 09:53 067 3 gusting 9 7.8
2020-Jan-25 09:48 081 3 gusting 10 7.8
2020-Jan-25 09:43 114 3 gusting 10 7.8
2020-Jan-25 09:38 073 2 gusting 7 7.8
2020-Jan-25 09:33 115 2 gusting 9 7.8
2020-Jan-25 09:28 082 3 gusting 9 7.8
2020-Jan-25 09:23 135 2 gusting 7 7.8
2020-Jan-25 09:18 085 2 gusting 7 7.8
2020-Jan-25 09:13 050 2 gusting 6 7.8
2020-Jan-25 09:08 090 2 gusting 7 7.8
2020-Jan-25 09:03 115 2 gusting 6 7.8
2020-Jan-25 08:58 091 2 gusting 8 7.8
2020-Jan-25 08:53 102 2 gusting 8 7.8
2020-Jan-25 08:48 097 1 gusting 5 7.8
2020-Jan-25 08:43 132 0 gusting 5 7.8
2020-Jan-25 08:38 121 1 gusting 5 8.3
2020-Jan-25 08:33 168 1 gusting 5 8.3
2020-Jan-25 08:28 119 1 gusting 5 8.3
2020-Jan-25 08:23 126 1 gusting 3 8.3
2020-Jan-25 08:18 104 0 gusting 4 8.3
2020-Jan-25 08:13 104 1 gusting 6 8.3
2020-Jan-25 08:08 005 2 gusting 6 8.3
2020-Jan-25 08:03 005 2 gusting 10 8.3
2020-Jan-25 07:58 005 2 gusting 10 8.3
2020-Jan-25 07:53 005 1 gusting 5 8.3
2020-Jan-25 07:48 005 1 gusting 5 8.3
2020-Jan-25 07:43 005 2 gusting 8 7.8
2020-Jan-25 07:38 005 2 gusting 8 7.8
2020-Jan-25 07:33 005 1 gusting 6 7.8
2020-Jan-25 07:28 123 1 gusting 6 7.8
2020-Jan-25 07:23 116 1 gusting 6 7.8
2020-Jan-25 07:18 074 2 gusting 7 7.8
2020-Jan-25 07:13 133 1 gusting 7 7.8
2020-Jan-25 07:08 119 1 gusting 6 7.2
2020-Jan-25 07:03 083 2 gusting 6 7.2
2020-Jan-25 06:58 089 2 gusting 6 7.8
2020-Jan-25 06:53 121 2 gusting 6 7.2
2020-Jan-25 06:48 123 2 gusting 6 7.8
2020-Jan-25 06:43 137 2 gusting 6 7.8
2020-Jan-25 06:38 139 2 gusting 9 7.8
2020-Jan-25 06:33 079 2 gusting 9 7.8
2020-Jan-25 06:28 098 1 gusting 6 7.8
2020-Jan-25 06:23 110 2 gusting 8 7.8
2020-Jan-25 06:18 176 2 gusting 8 7.8
2020-Jan-25 06:13 093 1 gusting 5 7.8
2020-Jan-25 06:08 005 2 gusting 6 7.8
2020-Jan-25 06:03 069 3 gusting 8 7.8
2020-Jan-25 05:58 005 3 gusting 8 7.8
2020-Jan-25 05:53 005 2 gusting 7 7.8
2020-Jan-25 05:48 152 2 gusting 6 7.8
2020-Jan-25 05:43 117 2 gusting 6 7.8
2020-Jan-25 05:38 102 2 gusting 8 7.8
2020-Jan-25 05:33 126 2 gusting 8 7.8
2020-Jan-25 05:28 050 2 gusting 5 7.8
2020-Jan-25 05:23 058 1 gusting 6 7.8
2020-Jan-25 05:18 079 1 gusting 6 8.3
2020-Jan-25 05:13 033 1 gusting 5 7.8
2020-Jan-25 05:08 068 1 gusting 6 7.8
2020-Jan-25 05:03 097 2 gusting 8 7.8
2020-Jan-25 04:58 005 1 gusting 8 7.8
2020-Jan-25 04:53 005 1 gusting 5 7.8
2020-Jan-25 04:48 005 2 gusting 7 7.8
2020-Jan-25 04:43 005 1 gusting 7 7.8
2020-Jan-25 04:38 092 1 gusting 6 7.8
2020-Jan-25 04:33 124 1 gusting 6 7.2
2020-Jan-25 04:28 095 1 gusting 5 7.2
2020-Jan-25 04:23 135 2 gusting 6 7.2
2020-Jan-25 04:18 089 1 gusting 6 7.2
2020-Jan-25 04:13 105 1 gusting 6 7.2
2020-Jan-25 04:08 126 1 gusting 6 7.2
2020-Jan-25 04:03 101 2 gusting 6 7.2
2020-Jan-25 03:58 108 2 gusting 6 7.2
2020-Jan-25 03:53 081 1 gusting 6 7.2
2020-Jan-25 03:48 092 1 gusting 6 7.2
2020-Jan-25 03:43 076 1 gusting 5 7.2
2020-Jan-25 03:38 117 2 gusting 6 7.2
2020-Jan-25 03:33 108 2 gusting 6 7.2
2020-Jan-25 03:28 093 2 gusting 6 7.2
2020-Jan-25 03:23 107 2 gusting 8 7.2
2020-Jan-25 03:18 121 2 gusting 8 7.2
2020-Jan-25 03:13 058 1 gusting 5 7.2
2020-Jan-25 03:08 094 1 gusting 5 7.2
2020-Jan-25 03:03 126 1 gusting 5 7.2
2020-Jan-25 02:58 031 2 gusting 7 7.2
2020-Jan-25 02:53 005 2 gusting 7 7.2
2020-Jan-25 02:48 096 1 gusting 6 7.2
2020-Jan-25 02:43 048 2 gusting 8 7.2
2020-Jan-25 02:38 005 2 gusting 8 7.2
2020-Jan-25 02:33 005 2 gusting 7 7.2
2020-Jan-25 02:28 069 2 gusting 7 7.2
2020-Jan-25 02:23 005 2 gusting 6 7.2
2020-Jan-25 02:18 005 2 gusting 6 7.8
2020-Jan-25 02:13 005 1 gusting 6 7.8
2020-Jan-25 02:08 005 1 gusting 6 7.8
2020-Jan-25 02:03 005 1 gusting 6 7.8
2020-Jan-25 01:58 005 2 gusting 7 7.8
2020-Jan-25 01:53 005 2 gusting 7 7.8
2020-Jan-25 01:48 005 1 gusting 6 7.8
2020-Jan-25 01:43 005 2 gusting 6 7.8
2020-Jan-25 01:38 005 2 gusting 9 7.8
2020-Jan-25 01:33 005 2 gusting 9 7.8
2020-Jan-25 01:28 005 2 gusting 9 7.8
2020-Jan-25 01:23 131 2 gusting 8 7.8
2020-Jan-25 01:18 005 2 gusting 8 7.8
2020-Jan-25 01:13 005 2 gusting 6 7.8
2020-Jan-25 01:08 005 2 gusting 8 7.8
2020-Jan-25 01:03 005 2 gusting 8 7.8
2020-Jan-25 00:58 005 2 gusting 7 7.8
2020-Jan-25 00:53 005 3 gusting 9 7.8
2020-Jan-25 00:48 065 2 gusting 9 8.3
2020-Jan-25 00:43 005 2 gusting 9 8.3
2020-Jan-25 00:38 005 2 gusting 9 8.3
2020-Jan-25 00:33 005 2 gusting 8 8.3
2020-Jan-25 00:28 149 3 gusting 8 8.3
2020-Jan-25 00:23 093 3 gusting 7 8.3
2020-Jan-25 00:18 005 2 gusting 7 8.3
2020-Jan-25 00:13 123 2 gusting 7 8.3
2020-Jan-25 00:08 079 1 gusting 6 8.3
2020-Jan-25 00:03 108 2 gusting 7 8.3
2020-Jan-24 23:58 111 2 gusting 10 8.3
2020-Jan-24 23:53 085 2 gusting 10 8.3
2020-Jan-24 23:48 101 2 gusting 7 8.3
2020-Jan-24 23:43 103 2 gusting 7 8.9
2020-Jan-24 23:38 041 2 gusting 7 8.9
2020-Jan-24 23:33 098 2 gusting 7 8.9
2020-Jan-24 23:28 097 2 gusting 6 8.9
2020-Jan-24 23:23 116 2 gusting 8 8.9
2020-Jan-24 23:18 100 2 gusting 8 8.9
2020-Jan-24 23:13 103 1 gusting 5 8.9
2020-Jan-24 23:08 133 1 gusting 5 9.4
2020-Jan-24 23:03 110 2 gusting 7 9.4
2020-Jan-24 22:58 116 2 gusting 8 9.4
2020-Jan-24 22:53 005 2 gusting 7 9.4
2020-Jan-24 22:47 070 3 gusting 9 9.4
2020-Jan-24 22:43 097 3 gusting 9 9.4
2020-Jan-24 22:38 005 3 gusting 8 9.4
2020-Jan-24 22:32 005 2 gusting 8 10.0
2020-Jan-24 22:27 005 2 gusting 7 10.0
2020-Jan-24 22:22 112 2 gusting 7 10.0
2020-Jan-24 22:17 110 2 gusting 9 10.0
2020-Jan-24 22:12 005 3 gusting 9 10.0
2020-Jan-24 22:02 095 3 gusting 8 10.0
2020-Jan-24 21:57 152 3 gusting 12 10.6
2020-Jan-24 21:52 118 2 gusting 12 10.6
2020-Jan-24 21:47 005 2 gusting 8 10.6
2020-Jan-24 21:42 072 2 gusting 6 10.6
2020-Jan-24 21:37 085 1 gusting 6 10.6
2020-Jan-24 21:32 129 1 gusting 6 10.0
2020-Jan-24 21:27 045 1 gusting 3 10.0
2020-Jan-24 21:22 005 1 gusting 3 10.0
2020-Jan-24 21:17 068 1 gusting 3 10.0
2020-Jan-24 21:12 110 1 gusting 3 10.0
2020-Jan-24 21:07 112 1 gusting 6 10.0
2020-Jan-24 21:02 105 1 gusting 6 10.0
2020-Jan-24 20:57 111 2 gusting 6 10.0
2020-Jan-24 20:52 101 2 gusting 6 10.0
2020-Jan-24 20:47 107 2 gusting 6 10.0
2020-Jan-24 20:42 099 2 gusting 6 10.0
2020-Jan-24 20:37 043 2 gusting 6 10.0
2020-Jan-24 20:32 109 2 gusting 6 10.0
2020-Jan-24 20:27 033 1 gusting 5 10.0
2020-Jan-24 20:22 026 1 gusting 5 10.0
2020-Jan-24 20:17 100 1 gusting 5 9.4
2020-Jan-24 20:12 031 1 gusting 3 9.4
2020-Jan-24 20:07 056 0 gusting 3 9.4
2020-Jan-24 20:02 070 0 gusting 3 9.4
2020-Jan-24 19:57 005 1 gusting 3 9.4
2020-Jan-24 19:52 005 1 gusting 3 9.4
2020-Jan-24 19:47 112 1 gusting 5 9.4
2020-Jan-24 19:42 115 1 gusting 5 9.4
2020-Jan-24 19:37 005 1 gusting 5 9.4
2020-Jan-24 19:32 102 1 gusting 3 9.4
2020-Jan-24 19:27 126 1 gusting 4 9.4
2020-Jan-24 19:22 082 1 gusting 4 9.4
2020-Jan-24 19:17 079 1 gusting 6 9.4
2020-Jan-24 19:12 115 1 gusting 6 9.4
2020-Jan-24 19:07 089 1 gusting 6 9.4
2020-Jan-24 19:02 081 1 gusting 4 9.4
2020-Jan-24 18:57 005 1 gusting 6 9.4
2020-Jan-24 18:52 050 1 gusting 6 9.4
2020-Jan-24 18:47 116 2 gusting 6 9.4
2020-Jan-24 18:42 106 2 gusting 7 9.4
2020-Jan-24 18:37 090 1 gusting 7 9.4
2020-Jan-24 18:32 106 1 gusting 5 8.9
2020-Jan-24 18:27 114 2 gusting 7 8.9
2020-Jan-24 18:22 031 2 gusting 7 8.3
2020-Jan-24 18:17 110 3 gusting 7 8.3
2020-Jan-24 18:12 079 3 gusting 7 8.3
2020-Jan-24 18:07 092 2 gusting 7 8.3
2020-Jan-24 18:02 081 2 gusting 7 8.3
2020-Jan-24 17:57 005 2 gusting 6 8.3
2020-Jan-24 17:52 102 2 gusting 6 8.9
2020-Jan-24 17:47 087 1 gusting 5 8.9
2020-Jan-24 17:42 126 1 gusting 5 8.9
2020-Jan-24 17:37 021 1 gusting 4 8.9
2020-Jan-24 17:32 179 1 gusting 5 8.9
2020-Jan-24 17:27 005 1 gusting 6 8.9
2020-Jan-24 17:22 110 2 gusting 7 8.3
2020-Jan-24 17:17 169 2 gusting 7 8.3
2020-Jan-24 17:12 108 2 gusting 7 8.3
2020-Jan-24 17:07 097 1 gusting 7 8.3
2020-Jan-24 17:02 040 2 gusting 6 8.3
2020-Jan-24 16:57 119 2 gusting 6 7.8
2020-Jan-24 16:52 086 2 gusting 6 7.8
2020-Jan-24 16:47 116 2 gusting 6 7.8
2020-Jan-24 16:42 077 2 gusting 7 7.8
2020-Jan-24 16:37 005 2 gusting 7 7.8
2020-Jan-24 16:32 005 1 gusting 6 7.8
2020-Jan-24 16:27 162 2 gusting 6 7.8
2020-Jan-24 16:22 137 2 gusting 6 7.2
2020-Jan-24 16:17 112 2 gusting 6 7.2
2020-Jan-24 16:12 081 2 gusting 6 7.2
2020-Jan-24 16:07 100 3 gusting 8 7.2
2020-Jan-24 16:02 099 2 gusting 8 7.2
2020-Jan-24 15:57 034 2 gusting 6 7.2
2020-Jan-24 15:52 046 2 gusting 6 6.7
2020-Jan-24 15:47 099 2 gusting 6 6.7
2020-Jan-24 15:42 098 3 gusting 8 6.7
2020-Jan-24 15:37 026 3 gusting 8 6.7
2020-Jan-24 15:32 080 2 gusting 6 6.1
2020-Jan-24 15:27 005 2 gusting 6 6.1
2020-Jan-24 15:22 005 2 gusting 7 5.6
2020-Jan-24 15:17 085 2 gusting 7 5.0
2020-Jan-24 15:12 110 2 gusting 6 5.0
2020-Jan-24 15:07 081 2 gusting 6 4.4
2020-Jan-24 15:02 089 1 gusting 5 4.4
2020-Jan-24 14:57 081 1 gusting 5 4.4
2020-Jan-24 14:52 060 2 gusting 6 3.9
2020-Jan-24 14:47 095 2 gusting 6 3.9
2020-Jan-24 14:42 114 1 gusting 5 3.3
2020-Jan-24 14:37 068 1 gusting 5 3.3
2020-Jan-24 14:32 142 1 gusting 5 3.3
2020-Jan-24 14:27 046 1 gusting 5 2.8
2020-Jan-24 14:22 086 1 gusting 5 2.8
2020-Jan-24 14:17 090 2 gusting 5 2.2
2020-Jan-24 14:12 049 2 gusting 6 2.2
2020-Jan-24 14:07 039 2 gusting 6 2.2
2020-Jan-24 14:02 095 1 gusting 6 1.7
2020-Jan-24 13:57 066 1 gusting 3 1.7
2020-Jan-24 13:52 056 1 gusting 4 1.7
2020-Jan-24 13:47 097 1 gusting 4 1.7
2020-Jan-24 13:42 089 1 gusting 3 1.1
2020-Jan-24 13:37 056 1 gusting 3 1.1
2020-Jan-24 13:32 101 0 gusting 3 1.1
2020-Jan-24 13:27 091 0 gusting 2 1.1
2020-Jan-24 13:22 092 0 gusting 2 0.6
2020-Jan-24 13:17 079 0 gusting 2 0.6
2020-Jan-24 13:12 058 0 gusting 2 0.6
2020-Jan-24 13:07 089 0.6
2020-Jan-24 13:02 089 -0.0
2020-Jan-24 12:57 089 -0.0
2020-Jan-24 12:52 089 -0.0
2020-Jan-24 12:47 089 -0.0
2020-Jan-24 12:42 089 -0.0
2020-Jan-24 12:37 089 -0.0
2020-Jan-24 12:32 089 -0.0
2020-Jan-24 12:27 089 0.6
2020-Jan-24 12:22 089 0.6
2020-Jan-24 12:17 089 0.6
2020-Jan-24 12:12 089 0 gusting 2 0.6
2020-Jan-24 12:07 089 0.6
2020-Jan-24 12:02 078 0.6
2020-Jan-24 11:57 078 0 gusting 2 -0.0
2020-Jan-24 11:52 078 -0.0
2020-Jan-24 11:47 093 -0.0
2020-Jan-24 11:42 093 -0.0
2020-Jan-24 11:37 093 -0.0
2020-Jan-24 11:32 093 0 gusting 2 -0.0
2020-Jan-24 11:27 093 0 gusting 2 -0.6
2020-Jan-24 11:22 093 0 gusting 2 -0.6
2020-Jan-24 11:17 093 0 gusting 1 -0.6
2020-Jan-24 11:12 110 -0.6
2020-Jan-24 11:07 110 -0.6
2020-Jan-24 11:02 110 -0.6
2020-Jan-24 10:57 110 -0.6
2020-Jan-24 10:52 110 -0.6
2020-Jan-24 10:47 110 -0.0
2020-Jan-24 10:42 110 -0.0
2020-Jan-24 10:37 110 -0.0
2020-Jan-24 10:32 110 0 gusting 1 -0.0
2020-Jan-24 10:27 110 0 gusting 1 -0.6
2020-Jan-24 10:22 110 0 gusting 1 -0.6
2020-Jan-24 10:17 110 -0.6
2020-Jan-24 10:12 110 -0.6
2020-Jan-24 10:07 110 -0.6
2020-Jan-24 10:02 110 -0.6
2020-Jan-24 09:57 110 -0.0
2020-Jan-24 09:52 110 -0.0
2020-Jan-24 09:47 110 -0.0
2020-Jan-24 09:42 110 -0.0
2020-Jan-24 09:37 110 -0.0
2020-Jan-24 09:32 110 -0.0
2020-Jan-24 09:27 110 -0.0
2020-Jan-24 09:22 110 0 gusting 1 -0.0
2020-Jan-24 09:17 110 0 gusting 1 -0.6
2020-Jan-24 09:12 110 -0.6
2020-Jan-24 09:07 110 -0.6
2020-Jan-24 09:02 110 -0.6
2020-Jan-24 08:57 110 -0.6
2020-Jan-24 08:52 110 -0.6
2020-Jan-24 08:47 110 -0.6
2020-Jan-24 08:42 110 -0.0
2020-Jan-24 08:37 110 -0.0
2020-Jan-24 08:32 110 -0.0
2020-Jan-24 08:27 110 -0.0
2020-Jan-24 08:22 110 -0.0
2020-Jan-24 08:17 110 -0.0
2020-Jan-24 08:12 110 -0.0
2020-Jan-24 08:07 110 -0.0
2020-Jan-24 08:02 110 -0.0
2020-Jan-24 07:57 110 -0.6
2020-Jan-24 07:52 110 -0.6
2020-Jan-24 07:47 110 -0.6
2020-Jan-24 07:42 110 -0.6
2020-Jan-24 07:37 110 -0.6
2020-Jan-24 07:32 110 -1.1
2020-Jan-24 07:27 110 -1.1
2020-Jan-24 07:22 110 -1.1
2020-Jan-24 07:17 110 -1.1
2020-Jan-24 07:12 110 -1.1
2020-Jan-24 07:07 110 -1.1
2020-Jan-24 07:02 110 -1.1
2020-Jan-24 06:57 110 -1.1
2020-Jan-24 06:52 110 -1.1
2020-Jan-24 06:47 110 -1.1
2020-Jan-24 06:42 110 -0.6
2020-Jan-24 06:37 110 -0.6
2020-Jan-24 06:32 110 0 gusting 2 -0.6
2020-Jan-24 06:27 110 0 gusting 2 -0.6
2020-Jan-24 06:22 110 -0.6
2020-Jan-24 06:17 110 -0.6
2020-Jan-24 06:12 110 -0.6
2020-Jan-24 06:07 110 -0.6
2020-Jan-24 06:02 110 -0.6
2020-Jan-24 05:57 110 -0.6
2020-Jan-24 05:52 110 -1.1
2020-Jan-24 05:47 110 -1.1
2020-Jan-24 05:42 110 -1.1
2020-Jan-24 05:37 110 -1.1
2020-Jan-24 05:32 110 -1.1
2020-Jan-24 05:29 110 -1.1
2020-Jan-24 05:22 110 -1.1
2020-Jan-24 05:17 110 -1.1
2020-Jan-24 05:12 110 -1.1
2020-Jan-24 05:07 110 -1.1
2020-Jan-24 05:02 110 -1.1
2020-Jan-24 04:57 110 -0.6
2020-Jan-24 04:52 110 -0.6
2020-Jan-24 04:47 110 -0.6
2020-Jan-24 04:42 110 -0.6
2020-Jan-24 04:37 110 -0.6
2020-Jan-24 04:32 110 -0.6
2020-Jan-24 04:27 110 -0.6
2020-Jan-24 04:22 110 -0.6
2020-Jan-24 04:17 110 -0.6
2020-Jan-24 04:12 110 -0.6
2020-Jan-24 04:07 110 -0.6
2020-Jan-24 04:02 110 -0.6
2020-Jan-24 03:57 110 -0.0
2020-Jan-24 03:52 110 -0.0
2020-Jan-24 03:47 110 -0.0
2020-Jan-24 03:42 110 0.6
2020-Jan-24 03:37 110 0.6
2020-Jan-24 03:32 110 0.6
2020-Jan-24 03:27 110 0.6
2020-Jan-24 03:22 110 0.6
2020-Jan-24 03:17 110 0.6
2020-Jan-24 03:12 075 0.6
2020-Jan-24 03:07 074 0.6
2020-Jan-24 03:02 074 0.6
2020-Jan-24 02:57 074 0.6
2020-Jan-24 02:52 074 0.6
2020-Jan-24 02:47 074 0.6
2020-Jan-24 02:42 074 0.6
2020-Jan-24 02:37 074 0.6
2020-Jan-24 02:32 074 0.6
2020-Jan-24 02:27 074 0.6
2020-Jan-24 02:22 074 0.6
2020-Jan-24 02:17 074 0.6
2020-Jan-24 02:12 074 0.6
2020-Jan-24 02:07 074 0.6
2020-Jan-24 02:02 074 0.6
2020-Jan-24 01:57 074 1.1
2020-Jan-24 01:52 074 1.1
2020-Jan-24 01:47 074 1.1
2020-Jan-24 01:42 074 1.1
2020-Jan-24 01:37 074 1.1
2020-Jan-24 01:32 074 1.1
2020-Jan-24 01:27 074 0.6
2020-Jan-24 01:22 074 1.1
2020-Jan-24 01:17 074 1.1
2020-Jan-24 01:12 074 1.1
2020-Jan-24 01:07 074 1.1
2020-Jan-24 01:02 074 1.1
2020-Jan-24 00:57 074 1.1
2020-Jan-24 00:51 075 1.1
2020-Jan-24 00:47 075 1.1
2020-Jan-24 00:42 075 1.1
2020-Jan-24 00:37 075 1.1
2020-Jan-24 00:31 075 1.1
2020-Jan-24 00:26 075 1.1
2020-Jan-24 00:21 075 1.1
2020-Jan-24 00:16 071 1.1
2020-Jan-24 00:11 071 1.1
2020-Jan-24 00:06 071 1.1
2020-Jan-24 00:01 071 1.1
2020-Jan-23 23:56 071 1.1
2020-Jan-23 23:51 071 1.7
2020-Jan-23 23:46 071 1.7
2020-Jan-23 23:41 071 1.7
2020-Jan-23 23:36 071 1.7
2020-Jan-23 23:31 071 1.7
2020-Jan-23 23:26 071 1.7
2020-Jan-23 23:21 071 2.2
2020-Jan-23 23:16 071 2.2
2020-Jan-23 23:11 071 2.2
2020-Jan-23 23:06 071 2.2
2020-Jan-23 23:01 071 2.2
2020-Jan-23 22:56 071 2.2
2020-Jan-23 22:51 071 2.2
2020-Jan-23 22:46 071 2.8
2020-Jan-23 22:41 071 2.8
2020-Jan-23 22:36 071 2.8
2020-Jan-23 22:31 071 2.8
2020-Jan-23 22:26 071 3.3
2020-Jan-23 22:21 071 3.3
2020-Jan-23 22:16 089 3.3
2020-Jan-23 22:11 105 3.3
2020-Jan-23 22:06 087 0 gusting 1 3.3
2020-Jan-23 22:01 105 0 gusting 2 3.9
2020-Jan-23 21:56 081 0 gusting 2 3.9
2020-Jan-23 21:51 089 0 gusting 2 3.9
2020-Jan-23 21:46 113 0 gusting 1 3.9
2020-Jan-23 21:41 068 4.4
2020-Jan-23 21:36 093 4.4
2020-Jan-23 21:31 128 0 gusting 2 4.4
2020-Jan-23 21:26 076 0 gusting 2 4.4
2020-Jan-23 21:21 079 0 gusting 2 4.4
2020-Jan-23 21:16 085 0 gusting 2 4.4
2020-Jan-23 21:11 079 0 gusting 2 4.4
2020-Jan-23 21:06 093 4.4
2020-Jan-23 21:01 080 5.0
2020-Jan-23 20:56 093 5.0
2020-Jan-23 20:51 093 5.0
2020-Jan-23 20:46 094 5.0
2020-Jan-23 20:41 103 5.0
2020-Jan-23 20:36 110 5.0
2020-Jan-23 20:31 108 5.0
2020-Jan-23 20:26 093 5.0
2020-Jan-23 20:21 185 5.0
2020-Jan-23 20:16 226 5.0
2020-Jan-23 20:11 205 0 gusting 2 5.0
2020-Jan-23 20:06 073 0 gusting 2 5.0
2020-Jan-23 20:01 141 0 gusting 2 5.0
2020-Jan-23 19:56 112 0 gusting 2 5.0
2020-Jan-23 19:51 113 5.0
2020-Jan-23 19:46 112 5.0
2020-Jan-23 19:41 108 5.0
2020-Jan-23 19:36 100 5.0
2020-Jan-23 19:31 096 4.4
2020-Jan-23 19:26 102 4.4
2020-Jan-23 19:21 050 0 gusting 2 4.4
2020-Jan-23 19:16 079 0 gusting 2 4.4
2020-Jan-23 19:11 118 0 gusting 2 4.4
2020-Jan-23 19:06 084 0 gusting 2 4.4
2020-Jan-23 19:01 051 0 gusting 2 4.4
2020-Jan-23 18:56 066 0 gusting 2 4.4
2020-Jan-23 18:51 116 0 gusting 2 4.4
2020-Jan-23 18:46 085 0 gusting 2 4.4
2020-Jan-23 18:41 073 0 gusting 2 4.4
2020-Jan-23 18:36 080 0 gusting 2 4.4
2020-Jan-23 18:34 081 0 gusting 2 4.4
2020-Jan-23 18:26 125 0 gusting 2 4.4
2020-Jan-23 18:21 060 4.4
2020-Jan-23 18:16 044 0 gusting 1 4.4
2020-Jan-23 18:11 120 0 gusting 2 4.4
2020-Jan-23 18:06 108 0 gusting 3 4.4
2020-Jan-23 18:01 106 0 gusting 3 4.4
2020-Jan-23 17:56 074 4.4
2020-Jan-23 17:51 324 4.4
2020-Jan-23 17:46 082 3.9
2020-Jan-23 17:41 103 0 gusting 1 3.9
2020-Jan-23 17:36 128 0 gusting 1 3.9
2020-Jan-23 17:31 095 3.9
2020-Jan-23 17:26 132 3.9
2020-Jan-23 17:21 126 0 gusting 1 3.9
2020-Jan-23 17:16 099 3.9
2020-Jan-23 17:11 080 0 gusting 2 3.3
2020-Jan-23 17:06 094 0 gusting 3 3.3
2020-Jan-23 17:01 101 0 gusting 3 3.3
2020-Jan-23 16:56 074 0 gusting 3 3.3
2020-Jan-23 16:51 119 0 gusting 3 3.3
2020-Jan-23 16:46 083 0 gusting 2 3.3
2020-Jan-23 16:41 099 0 gusting 1 3.3
2020-Jan-23 16:36 071 0 gusting 1 3.3
2020-Jan-23 16:31 105 0 gusting 1 3.3
2020-Jan-23 16:26 128 0 gusting 2 2.8
2020-Jan-23 16:21 078 0 gusting 2 2.8
2020-Jan-23 16:16 122 0 gusting 2 2.8
2020-Jan-23 16:11 077 0 gusting 2 2.2
2020-Jan-23 16:06 067 0 gusting 1 2.2
2020-Jan-23 16:01 086 2.2
2020-Jan-23 15:56 095 1.7
2020-Jan-23 15:51 117 1.7
2020-Jan-23 15:46 072 0 gusting 1 1.7
2020-Jan-23 15:41 047 0 gusting 1 1.1
2020-Jan-23 15:36 043 0 gusting 1 1.1
2020-Jan-23 15:31 124 1.1
2020-Jan-23 15:26 087 1.1
2020-Jan-23 15:21 093 0 gusting 2 0.6
2020-Jan-23 15:16 101 0 gusting 2 0.6
2020-Jan-23 15:11 124 0 gusting 2 -0.0
2020-Jan-23 15:06 089 0 gusting 2 -0.0
2020-Jan-23 15:01 084 0 gusting 1 -0.0
2020-Jan-23 14:56 077 -0.6
2020-Jan-23 14:51 077 0 gusting 2 -0.6
2020-Jan-23 14:46 094 0 gusting 1 -0.6
2020-Jan-23 14:41 095 0 gusting 1 -0.6
2020-Jan-23 14:36 095 -0.6
2020-Jan-23 14:31 095 -0.6
2020-Jan-23 14:26 095 -0.6
2020-Jan-23 14:21 095 -1.1
2020-Jan-23 14:16 095 -1.1
2020-Jan-23 14:11 095 -1.7
2020-Jan-23 14:06 095 -1.7
2020-Jan-23 14:01 095 -2.2
2020-Jan-23 13:56 095 -2.8
2020-Jan-23 13:51 095 -2.8
2020-Jan-23 13:46 095 -3.3
2020-Jan-23 13:41 095 -3.3
2020-Jan-23 13:36 095 -3.3
2020-Jan-23 13:31 095 -3.9
2020-Jan-23 13:26 095 -3.9
2020-Jan-23 13:21 095 -4.4
2020-Jan-23 13:16 095 -4.4
2020-Jan-23 13:11 095 -4.4
2020-Jan-23 13:06 095 -4.4
2020-Jan-23 13:01 095 -5.0